Find NOAA 9

NORAD ID: 15427 Int'l Des: 1984-123 Owner: NOAA Country: US operational
LEOCIRCULARRETROGRADESSO

Current View

Loading 3D Globe...

About NOAA 9

Description loading...

Upcoming Passes

Passes for default location (London). Set your location on the main map for personalized predictions.

Altitude History

Loading altitude history...

Two-Line Element Set

1 15427U 84123A 26151.03954806 .00000142 00000-0 93483-4 0 9995
2 15427 99.0994 177.2793 0015320 41.9131 347.7191 14.17063221140999
Epoch: May 31, 2026 • Age: 13 hours

Current Status

Altitude 871.1 km
Velocity 7.41 km/s
Sub-Earth Point -72.23°S, 129.11°W
Launch Date Dec 12, 1984
Age 41.4 years
Type weather

Technical Details

Classification Payload
Mass 1030.00 kg
Dry Mass 1030.00 kg
Total Mass 1712.00 kg
Length 4.20 m
Diameter 1.90 m
Span 8.00 m
Shape Box + Pan
Manufacturer RCA
Bus Type ATN
Phase Status In Orbit
Owner/State NOAA/US

Most Searched